Honolulu, HI

9:50 PM HST on June 22, 2017 (GMT -1000)
Honolulu International

Weather History for PHNL - February, 2012

Change the Weather History Date:

Friday, February 17, 2012

  Actual Average Record
Temperature  
Mean Temperature 77 °F 73 °F  
Max Temperature 82 °F 80 °F 85 °F (2000)
Min Temperature 71 °F 66 °F 56 °F (1986)
Degree Days  
Heating Degree Days 0 0  
Month to date heating degree days 0 0  
Since 1 July heating degree days 0 0  
Cooling Degree Days 12 8  
Month to date cooling degree days 119 136  
Year to date cooling degree days 419 390  
Growing Degree Days 26 (Base 50)    
Moisture  
Dew Point 61 °F    
Average Humidity 62    
Maximum Humidity 79    
Minimum Humidity 45    
Precipitation  
Precipitation T in 0.07 in 0.49 in (1994)
Month to date precipitation 0.65 1.14  
Year to date precipitation 1.21 3.45  
Snow  
Snow 0.00 in - - ()
Month to date snowfall 0.0  
Since 1 July snowfall 0.0  
Snow Depth 0.00 in    
Sea Level Pressure  
Sea Level Pressure 30.18 in    
Wind  
Wind Speed 16 mph (ENE)    
Max Wind Speed 28 mph    
Max Gust Speed 35 mph    
Visibility 10 miles    
Events Rain    
T = Trace of Precipitation, MM = Missing Value Source: NWS Daily Summary

Daily Weather History Graph

Daily Weather History Graph

Search for Another Location

Airport or City:

Trip Planner

Search our weather history database for the weather conditions in past years. The results will help you decide how hot, cold, wet, or windy it might be!

Date:

Astronomy

Feb. 17, 2012 Rise Set
Actual Time 7:01 AM HST 6:30 PM HST
Civil Twilight 6:38 AM HST 6:53 PM HST
Nautical Twilight 6:12 AM HST 7:19 PM HST
Astronomical Twilight 5:46 AM HST 7:45 PM HST
Moon 3:40 AM HST (2/17) 2:55 PM HST (2/17)
Length of Visible Light 12h 14m
Length of Day
11h 29m
Waning Crescent, 17% of the Moon is Illuminated
Feb 17
Waning Crescent
Feb 21
New
Feb 29
First Quarter
Mar 7
Full
Mar 14
Last Quarter

Hourly Weather History & Observations

Time (HST) Temp. Heat Index Dew Point Humidity Pressure Visibility Wind Dir Wind Speed Gust Speed Precip Events Conditions
12:53 AM 73.0 °F - 63.0 °F 71% 30.18 in 10.0 mi NE 16.1 mph 20.7 mph N/A   Partly Cloudy
1:53 AM 73.0 °F - 64.0 °F 73% 30.18 in 10.0 mi ENE 11.5 mph - N/A   Scattered Clouds
2:53 AM 71.1 °F - 64.9 °F 81% 30.17 in 10.0 mi ENE 6.9 mph - 0.00 in   Mostly Cloudy
3:53 AM 73.0 °F - 63.0 °F 71% 30.16 in 10.0 mi NE 12.7 mph 23.0 mph N/A   Mostly Cloudy
4:53 AM 72.0 °F - 63.0 °F 73% 30.16 in 10.0 mi ENE 10.4 mph - N/A   Scattered Clouds
5:53 AM 72.0 °F - 63.0 °F 73% 30.17 in 10.0 mi NE 10.4 mph - 0.00 in   Scattered Clouds
6:53 AM 72.0 °F - 62.1 °F 71% 30.19 in 10.0 mi ENE 13.8 mph - 0.00 in   Scattered Clouds
7:53 AM 73.0 °F - 62.1 °F 68% 30.21 in 10.0 mi ENE 12.7 mph - N/A   Scattered Clouds
8:53 AM 75.9 °F - 61.0 °F 60% 30.23 in 10.0 mi ENE 19.6 mph 26.5 mph N/A   Scattered Clouds
9:53 AM 77.0 °F - 61.0 °F 58% 30.24 in 10.0 mi ENE 15.0 mph - N/A   Scattered Clouds
10:53 AM 78.1 °F - 60.1 °F 54% 30.23 in 9.0 mi ENE 21.9 mph 26.5 mph N/A Rain Light Rain
11:53 AM 80.1 °F 80.9 °F 60.1 °F 50% 30.21 in 10.0 mi ENE 19.6 mph 27.6 mph 0.00 in   Scattered Clouds
12:53 PM 80.1 °F 80.6 °F 57.9 °F 47% 30.18 in 10.0 mi NE 19.6 mph 28.8 mph N/A   Scattered Clouds
1:53 PM 81.0 °F 81.1 °F 57.9 °F 45% 30.15 in 10.0 mi ENE 16.1 mph 26.5 mph N/A   Scattered Clouds
2:53 PM 82.0 °F 82.1 °F 59.0 °F 45% 30.13 in 10.0 mi NE 18.4 mph 27.6 mph N/A   Partly Cloudy
3:53 PM 80.1 °F 80.7 °F 59.0 °F 48% 30.13 in 10.0 mi NE 20.7 mph 28.8 mph N/A   Partly Cloudy
4:53 PM 78.1 °F - 60.1 °F 54% 30.14 in 10.0 mi ENE 23.0 mph 33.4 mph N/A   Partly Cloudy
5:53 PM 75.9 °F - 59.0 °F 56% 30.16 in 10.0 mi ENE 18.4 mph 24.2 mph N/A   Scattered Clouds
6:53 PM 73.9 °F - 60.1 °F 62% 30.17 in 10.0 mi NE 17.3 mph - N/A   Scattered Clouds
7:53 PM 73.9 °F - 61.0 °F 64% 30.19 in 10.0 mi ENE 16.1 mph 21.9 mph N/A   Scattered Clouds
8:53 PM 73.9 °F - 61.0 °F 64% 30.20 in 10.0 mi NE 16.1 mph 24.2 mph N/A   Partly Cloudy
9:53 PM 73.9 °F - 61.0 °F 64% 30.21 in 10.0 mi ENE 15.0 mph - N/A   Scattered Clouds
10:53 PM 72.0 °F - 63.0 °F 73% 30.22 in 10.0 mi East 12.7 mph - 0.00 in Rain Light Rain
11:53 PM 72.0 °F - 62.1 °F 71% 30.21 in 10.0 mi ENE 13.8 mph - 0.00 in   Scattered Clouds